Time,TemperatureF,DewpointF,PressureIn,WindDirection,WindDirectionDegrees,WindSpeedMPH,WindSpeedGustMPH,Humidity,HourlyPrecipIn,Conditions,Clouds,dailyrainin,SoftwareType,DateUTC
2013-02-28 00:00:00,33.0,32.0,29.21,NNE,22,3.5,7.0,93,0.00,,,0.00,Rainwise IP-100,2013-02-28 05:00:00,
2013-02-28 00:05:00,33.1,32.0,29.21,NNW,337,2.3,6.8,93,0.00,,,0.00,Rainwise IP-100,2013-02-28 05:05:00,
2013-02-28 00:10:00,33.1,31.0,29.21,NE,45,3.3,4.9,92,0.00,,,0.00,Rainwise IP-100,2013-02-28 05:10:00,
2013-02-28 00:15:00,33.1,31.0,29.21,NNE,22,1.6,5.8,91,0.00,,,0.00,Rainwise IP-100,2013-02-28 05:15:00,
2013-02-28 00:20:00,33.2,31.0,29.20,NE,45,2.6,5.8,91,0.00,,,0.00,Rainwise IP-100,2013-02-28 05:20:00,
2013-02-28 00:25:00,33.1,31.0,29.20,NNE,22,2.6,6.5,91,0.00,,,0.00,Rainwise IP-100,2013-02-28 05:25:00,
2013-02-28 00:30:00,33.0,31.0,29.20,NNW,337,2.3,4.9,91,0.00,,,0.00,Rainwise IP-100,2013-02-28 05:30:00,
2013-02-28 00:35:00,32.9,31.0,29.20,NNW,337,3.3,5.1,91,0.00,,,0.00,Rainwise IP-100,2013-02-28 05:35:00,
2013-02-28 00:40:00,32.9,31.0,29.20,North,360,1.2,5.8,91,0.00,,,0.00,Rainwise IP-100,2013-02-28 05:40:00,
2013-02-28 00:45:00,32.8,31.0,29.19,NNW,337,2.1,2.6,91,0.00,,,0.00,Rainwise IP-100,2013-02-28 05:45:00,
2013-02-28 00:50:00,32.7,31.0,29.19,NNW,337,0.0,3.3,92,0.00,,,0.00,Rainwise IP-100,2013-02-28 05:50:00,
2013-02-28 00:55:00,32.6,31.0,29.19,NNW,337,0.0,1.6,92,0.00,,,0.00,Rainwise IP-100,2013-02-28 05:55:00,
2013-02-28 01:00:00,32.4,31.0,29.19,NNW,337,0.0,0.0,93,0.00,,,0.00,Rainwise IP-100,2013-02-28 06:00:00,
2013-02-28 01:06:00,32.2,31.0,29.18,NNW,337,0.0,2.3,93,0.00,,,0.00,Rainwise IP-100,2013-02-28 06:06:00,
2013-02-28 01:11:00,32.0,31.0,29.18,NNW,337,0.0,0.0,94,0.00,,,0.00,Rainwise IP-100,2013-02-28 06:11:00,
2013-02-28 01:16:00,31.9,31.0,29.18,NNW,337,0.0,0.0,95,0.00,,,0.00,Rainwise IP-100,2013-02-28 06:16:00,
2013-02-28 01:21:00,31.9,31.0,29.18,NNW,337,0.0,0.0,95,0.00,,,0.00,Rainwise IP-100,2013-02-28 06:21:00,
2013-02-28 01:26:00,31.9,31.0,29.18,NNW,337,0.0,1.2,96,0.00,,,0.00,Rainwise IP-100,2013-02-28 06:26:00,
2013-02-28 01:31:00,31.8,31.0,29.18,NNW,337,0.0,0.0,96,0.00,,,0.00,Rainwise IP-100,2013-02-28 06:31:00,
2013-02-28 01:36:00,31.7,31.0,29.18,SSW,202,2.1,2.6,97,0.00,,,0.00,Rainwise IP-100,2013-02-28 06:36:00,
2013-02-28 01:41:00,31.6,31.0,29.17,WSW,247,0.0,4.0,97,0.00,,,0.00,Rainwise IP-100,2013-02-28 06:41:00,
2013-02-28 01:46:00,31.5,31.0,29.17,WSW,247,0.0,1.2,97,0.00,,,0.00,Rainwise IP-100,2013-02-28 06:46:00,
2013-02-28 01:51:00,31.5,32.0,29.17,WSW,247,1.4,1.6,98,0.00,,,0.00,Rainwise IP-100,2013-02-28 06:51:00,
2013-02-28 01:56:00,31.5,32.0,29.17,WSW,247,0.0,2.1,98,0.00,,,0.00,Rainwise IP-100,2013-02-28 06:56:00,
2013-02-28 02:01:00,31.5,32.0,29.17,South,180,0.0,1.6,98,0.00,,,0.00,Rainwise IP-100,2013-02-28 07:01:00,
2013-02-28 02:06:00,31.5,32.0,29.17,SSE,157,1.9,2.1,98,0.00,,,0.00,Rainwise IP-100,2013-02-28 07:06:00,
2013-02-28 02:11:00,31.4,31.0,29.17,SSE,157,0.0,2.1,98,0.00,,,0.00,Rainwise IP-100,2013-02-28 07:11:00,
2013-02-28 02:16:00,31.4,31.0,29.16,SSE,157,0.0,1.4,98,0.00,,,0.00,Rainwise IP-100,2013-02-28 07:16:00,
2013-02-28 02:22:00,31.4,31.0,29.16,SSE,157,0.0,0.0,98,0.00,,,0.00,Rainwise IP-100,2013-02-28 07:22:00,
2013-02-28 02:27:00,31.4,31.0,29.15,SSE,157,0.0,0.0,99,0.00,,,0.00,Rainwise IP-100,2013-02-28 07:27:00,
2013-02-28 02:32:00,31.4,31.0,29.16,SSE,157,1.4,1.6,99,0.00,,,0.00,Rainwise IP-100,2013-02-28 07:32:00,
2013-02-28 02:37:00,31.3,31.0,29.16,SSE,157,1.2,1.9,99,0.00,,,0.00,Rainwise IP-100,2013-02-28 07:37:00,
2013-02-28 02:42:00,31.3,31.0,29.16,SSE,157,1.4,2.1,99,0.00,,,0.00,Rainwise IP-100,2013-02-28 07:42:00,
2013-02-28 02:47:00,31.3,31.0,29.16,SSE,157,1.9,3.0,99,0.00,,,0.00,Rainwise IP-100,2013-02-28 07:47:00,
2013-02-28 02:52:00,31.3,31.0,29.16,SSW,202,2.1,3.3,99,0.00,,,0.00,Rainwise IP-100,2013-02-28 07:52:00,
2013-02-28 02:57:00,31.3,31.0,29.16,SSE,157,1.4,2.8,99,0.00,,,0.00,Rainwise IP-100,2013-02-28 07:57:00,
2013-02-28 03:02:00,31.3,31.0,29.16,SSW,202,0.0,2.8,99,0.00,,,0.00,Rainwise IP-100,2013-02-28 08:02:00,
2013-02-28 03:07:00,31.3,31.0,29.16,SSW,202,0.0,0.0,99,0.00,,,0.00,Rainwise IP-100,2013-02-28 08:07:00,
2013-02-28 03:12:00,31.3,31.0,29.15,SSW,202,0.0,0.0,99,0.00,,,0.00,Rainwise IP-100,2013-02-28 08:12:00,
2013-02-28 03:17:00,31.3,31.0,29.16,SSW,202,0.0,0.0,99,0.00,,,0.00,Rainwise IP-100,2013-02-28 08:17:00,
2013-02-28 03:22:00,31.3,31.0,29.16,SSW,202,2.1,3.3,99,0.00,,,0.00,Rainwise IP-100,2013-02-28 08:22:00,
2013-02-28 03:27:00,31.3,31.0,29.15,SSE,157,0.0,3.0,100,0.00,,,0.00,Rainwise IP-100,2013-02-28 08:27:00,
2013-02-28 03:32:00,31.3,31.0,29.16,SSE,157,1.2,2.1,100,0.00,,,0.00,Rainwise IP-100,2013-02-28 08:32:00,
2013-02-28 03:38:00,31.3,31.0,29.15,SSE,157,0.0,1.9,100,0.00,,,0.00,Rainwise IP-100,2013-02-28 08:38:00,
2013-02-28 03:43:00,31.3,31.0,29.15,SSE,157,0.0,2.1,100,0.00,,,0.00,Rainwise IP-100,2013-02-28 08:43:00,
2013-02-28 03:48:00,31.2,31.0,29.15,SSE,157,1.6,1.9,100,0.00,,,0.00,Rainwise IP-100,2013-02-28 08:48:00,
2013-02-28 03:53:00,31.3,31.0,29.15,SSW,202,1.4,3.0,100,0.00,,,0.00,Rainwise IP-100,2013-02-28 08:53:00,
2013-02-28 03:58:00,31.3,31.0,29.16,SSE,157,0.0,2.1,100,0.00,,,0.00,Rainwise IP-100,2013-02-28 08:58:00,
2013-02-28 04:03:00,31.3,31.0,29.16,SSE,157,0.0,0.0,100,0.00,,,0.00,Rainwise IP-100,2013-02-28 09:03:00,
2013-02-28 04:08:00,31.3,31.0,29.16,SSE,157,2.3,3.3,100,0.00,,,0.00,Rainwise IP-100,2013-02-28 09:08:00,
2013-02-28 04:13:00,31.2,31.0,29.16,SSW,202,3.0,4.7,100,0.00,,,0.00,Rainwise IP-100,2013-02-28 09:13:00,
2013-02-28 04:18:00,31.2,31.0,29.16,SSW,202,2.3,3.7,100,0.00,,,0.00,Rainwise IP-100,2013-02-28 09:18:00,
2013-02-28 04:23:00,31.3,31.0,29.16,SSW,202,1.9,3.7,100,0.00,,,0.00,Rainwise IP-100,2013-02-28 09:23:00,
2013-02-28 04:28:00,31.3,31.0,29.16,SSW,202,0.0,2.3,100,0.00,,,0.00,Rainwise IP-100,2013-02-28 09:28:00,
2013-02-28 04:33:00,31.3,31.0,29.16,SSW,202,1.4,1.4,100,0.00,,,0.00,Rainwise IP-100,2013-02-28 09:33:00,
2013-02-28 04:38:00,31.3,31.0,29.16,SW,225,2.6,3.0,100,0.00,,,0.00,Rainwise IP-100,2013-02-28 09:38:00,
2013-02-28 04:43:00,31.3,31.0,29.16,SSW,202,1.6,3.0,100,0.00,,,0.00,Rainwise IP-100,2013-02-28 09:43:00,
2013-02-28 04:48:00,31.3,31.0,29.16,SSW,202,0.0,2.1,100,0.00,,,0.00,Rainwise IP-100,2013-02-28 09:48:00,
2013-02-28 04:54:00,31.3,31.0,29.16,SSW,202,0.0,0.0,100,0.00,,,0.00,Rainwise IP-100,2013-02-28 09:54:00,
2013-02-28 04:59:00,31.3,31.0,29.16,SSW,202,0.0,0.0,100,0.00,,,0.00,Rainwise IP-100,2013-02-28 09:59:00,
2013-02-28 05:04:00,31.3,31.0,29.16,SSW,202,0.0,0.0,100,0.00,,,0.00,Rainwise IP-100,2013-02-28 10:04:00,
2013-02-28 05:09:00,31.4,31.0,29.16,SSW,202,0.0,0.0,100,0.00,,,0.00,Rainwise IP-100,2013-02-28 10:09:00,
2013-02-28 05:14:00,31.4,31.0,29.16,SSW,202,0.0,0.0,100,0.00,,,0.00,Rainwise IP-100,2013-02-28 10:14:00,
2013-02-28 05:19:00,31.4,31.0,29.16,SSW,202,0.0,0.0,100,0.00,,,0.00,Rainwise IP-100,2013-02-28 10:19:00,
2013-02-28 05:24:00,31.3,31.0,29.16,SSW,202,0.0,0.0,100,0.00,,,0.00,Rainwise IP-100,2013-02-28 10:24:00,
2013-02-28 05:29:00,31.2,31.0,29.16,SSW,202,0.0,0.0,100,0.00,,,0.00,Rainwise IP-100,2013-02-28 10:29:00,
2013-02-28 05:34:00,31.1,31.0,29.16,SSW,202,1.2,0.0,100,0.00,,,0.00,Rainwise IP-100,2013-02-28 10:34:00,
2013-02-28 05:39:00,31.0,31.0,29.17,SSW,202,0.0,1.4,100,0.00,,,0.00,Rainwise IP-100,2013-02-28 10:39:00,
2013-02-28 05:44:00,31.0,31.0,29.17,SSW,202,0.0,0.0,100,0.00,,,0.00,Rainwise IP-100,2013-02-28 10:44:00,
2013-02-28 05:49:00,31.0,31.0,29.17,SSW,202,0.0,1.2,100,0.00,,,0.00,Rainwise IP-100,2013-02-28 10:49:00,
2013-02-28 05:54:00,31.0,31.0,29.17,SSW,202,1.9,2.1,100,0.00,,,0.00,Rainwise IP-100,2013-02-28 10:54:00,
2013-02-28 05:59:00,31.0,31.0,29.17,SSW,202,0.0,2.1,100,0.00,,,0.00,Rainwise IP-100,2013-02-28 10:59:00,
2013-02-28 06:04:00,31.0,31.0,29.17,SSW,202,0.0,1.2,100,0.00,,,0.00,Rainwise IP-100,2013-02-28 11:04:00,
2013-02-28 06:10:00,31.0,31.0,29.18,SSW,202,0.0,0.0,100,0.00,,,0.00,Rainwise IP-100,2013-02-28 11:10:00,
2013-02-28 06:15:00,31.0,31.0,29.18,SSW,202,0.0,1.4,100,0.00,,,0.00,Rainwise IP-100,2013-02-28 11:15:00,
2013-02-28 06:20:00,31.0,31.0,29.17,SSW,202,0.0,1.6,100,0.00,,,0.00,Rainwise IP-100,2013-02-28 11:20:00,
2013-02-28 06:25:00,31.0,31.0,29.18,SSW,202,1.4,1.9,100,0.00,,,0.00,Rainwise IP-100,2013-02-28 11:25:00,
2013-02-28 06:30:00,31.0,31.0,29.19,SSW,202,0.0,1.6,100,0.00,,,0.00,Rainwise IP-100,2013-02-28 11:30:00,
2013-02-28 06:35:00,31.0,31.0,29.18,SSE,157,0.0,2.1,100,0.00,,,0.00,Rainwise IP-100,2013-02-28 11:35:00,
2013-02-28 06:40:00,31.0,31.0,29.18,SSE,157,0.0,0.0,100,0.00,,,0.00,Rainwise IP-100,2013-02-28 11:40:00,
2013-02-28 06:45:00,31.0,31.0,29.18,SSE,157,0.0,0.0,100,0.00,,,0.00,Rainwise IP-100,2013-02-28 11:45:00,
2013-02-28 06:50:00,31.0,31.0,29.18,SSE,157,0.0,0.0,100,0.00,,,0.00,Rainwise IP-100,2013-02-28 11:50:00,
2013-02-28 06:55:00,31.0,31.0,29.18,SSE,157,0.0,0.0,100,0.00,,,0.00,Rainwise IP-100,2013-02-28 11:55:00,
2013-02-28 07:00:00,31.1,31.0,29.18,SSE,157,0.0,0.0,100,0.00,,,0.00,Rainwise IP-100,2013-02-28 12:00:00,
2013-02-28 07:05:00,31.2,31.0,29.18,SSE,157,0.0,0.0,100,0.00,,,0.00,Rainwise IP-100,2013-02-28 12:05:00,
2013-02-28 07:10:00,31.3,31.0,29.18,SSE,157,0.0,0.0,100,0.00,,,0.00,Rainwise IP-100,2013-02-28 12:10:00,
2013-02-28 07:15:00,31.3,31.0,29.19,SSE,157,0.0,0.0,100,0.00,,,0.00,Rainwise IP-100,2013-02-28 12:15:00,
2013-02-28 07:20:00,31.4,31.0,29.18,SW,225,1.9,2.6,100,0.00,,,0.00,Rainwise IP-100,2013-02-28 12:20:00,
2013-02-28 07:26:00,31.5,32.0,29.19,SW,225,1.2,3.3,100,0.00,,,0.00,Rainwise IP-100,2013-02-28 12:26:00,
2013-02-28 07:31:00,31.6,32.0,29.19,SW,225,1.4,2.3,100,0.00,,,0.00,Rainwise IP-100,2013-02-28 12:31:00,
2013-02-28 07:36:00,31.7,32.0,29.19,SSW,202,2.6,3.3,100,0.00,,,0.00,Rainwise IP-100,2013-02-28 12:36:00,
2013-02-28 07:41:00,31.8,32.0,29.19,SSW,202,0.0,2.8,100,0.00,,,0.00,Rainwise IP-100,2013-02-28 12:41:00,
2013-02-28 07:46:00,32.0,32.0,29.18,SSE,157,2.8,2.8,100,0.00,,,0.00,Rainwise IP-100,2013-02-28 12:46:00,
2013-02-28 07:51:00,32.3,32.0,29.19,SW,225,0.0,3.3,100,0.00,,,0.00,Rainwise IP-100,2013-02-28 12:51:00,
2013-02-28 07:56:00,32.8,33.0,29.19,SW,225,0.0,1.2,100,0.00,,,0.00,Rainwise IP-100,2013-02-28 12:56:00,
2013-02-28 08:01:00,33.2,33.0,29.18,SW,225,0.0,0.0,100,0.00,,,0.00,Rainwise IP-100,2013-02-28 13:01:00,
2013-02-28 08:06:00,33.6,35.0,29.19,SW,225,0.0,1.2,100,0.00,,,0.00,Rainwise IP-100,2013-02-28 13:06:00,
2013-02-28 08:11:00,33.6,35.0,29.18,South,180,0.0,2.6,100,0.00,,,0.00,Rainwise IP-100,2013-02-28 13:11:00,
2013-02-28 08:16:00,33.6,35.0,29.18,SSW,202,1.2,3.0,100,0.06,,,0.01,Rainwise IP-100,2013-02-28 13:16:00,
2013-02-28 08:21:00,33.3,33.0,29.18,SSE,157,1.6,4.0,100,0.06,,,0.01,Rainwise IP-100,2013-02-28 13:21:00,
2013-02-28 08:26:00,33.3,33.0,29.18,SE,135,1.9,2.8,100,0.00,,,0.01,Rainwise IP-100,2013-02-28 13:26:00,
2013-02-28 08:31:00,33.7,35.0,29.18,SSE,157,1.6,2.6,100,0.00,,,0.01,Rainwise IP-100,2013-02-28 13:31:00,
2013-02-28 08:36:00,34.1,35.0,29.18,SSE,157,0.0,2.3,100,0.00,,,0.01,Rainwise IP-100,2013-02-28 13:36:00,
2013-02-28 08:42:00,34.3,35.0,29.18,ESE,112,0.0,1.4,100,0.00,,,0.01,Rainwise IP-100,2013-02-28 13:42:00,
2013-02-28 08:47:00,34.4,35.0,29.18,ENE,67,0.0,1.4,100,0.00,,,0.01,Rainwise IP-100,2013-02-28 13:47:00,
2013-02-28 08:52:00,35.4,35.0,29.18,ENE,67,0.0,1.9,100,0.00,,,0.01,Rainwise IP-100,2013-02-28 13:52:00,
2013-02-28 08:57:00,36.5,37.0,29.18,SSW,202,1.4,3.0,100,0.00,,,0.01,Rainwise IP-100,2013-02-28 13:57:00,
2013-02-28 09:02:00,37.2,37.0,29.18,SSE,157,1.4,3.3,100,0.00,,,0.01,Rainwise IP-100,2013-02-28 14:02:00,
2013-02-28 09:07:00,37.2,37.0,29.18,South,180,3.3,3.7,100,0.00,,,0.01,Rainwise IP-100,2013-02-28 14:07:00,
2013-02-28 09:12:00,36.5,37.0,29.18,SSE,157,1.2,3.7,100,0.00,,,0.01,Rainwise IP-100,2013-02-28 14:12:00,
2013-02-28 09:17:00,36.1,36.0,29.18,SW,225,0.0,3.7,100,0.00,,,0.01,Rainwise IP-100,2013-02-28 14:17:00,
2013-02-28 09:22:00,36.2,36.0,29.18,SSE,157,2.3,4.2,100,0.00,,,0.01,Rainwise IP-100,2013-02-28 14:22:00,
2013-02-28 09:27:00,36.0,36.0,29.18,SSW,202,2.1,3.3,100,0.00,,,0.01,Rainwise IP-100,2013-02-28 14:27:00,
2013-02-28 09:32:00,36.5,37.0,29.18,SSE,157,0.0,4.4,100,0.00,,,0.01,Rainwise IP-100,2013-02-28 14:32:00,
2013-02-28 09:37:00,37.6,38.0,29.18,SW,225,0.0,1.6,100,0.00,,,0.01,Rainwise IP-100,2013-02-28 14:37:00,
2013-02-28 09:42:00,38.9,39.0,29.18,SSW,202,2.6,3.3,100,0.00,,,0.01,Rainwise IP-100,2013-02-28 14:42:00,
2013-02-28 09:47:00,39.2,39.0,29.17,WSW,247,4.4,5.4,100,0.00,,,0.01,Rainwise IP-100,2013-02-28 14:47:00,
2013-02-28 09:52:00,38.2,38.0,29.18,SSE,157,5.4,5.4,100,0.00,,,0.01,Rainwise IP-100,2013-02-28 14:52:00,
2013-02-28 09:58:00,37.2,37.0,29.18,SSW,202,1.2,5.4,100,0.00,,,0.01,Rainwise IP-100,2013-02-28 14:58:00,
2013-02-28 10:03:00,36.9,37.0,29.18,ESE,112,0.0,4.0,100,0.00,,,0.01,Rainwise IP-100,2013-02-28 15:03:00,
2013-02-28 10:08:00,38.3,38.0,29.18,WSW,247,0.0,4.0,100,0.00,,,0.01,Rainwise IP-100,2013-02-28 15:08:00,
2013-02-28 10:13:00,40.9,41.0,29.18,ESE,112,0.0,2.8,100,0.00,,,0.01,Rainwise IP-100,2013-02-28 15:13:00,
2013-02-28 10:18:00,42.3,42.0,29.18,WSW,247,2.1,2.8,100,0.00,,,0.01,Rainwise IP-100,2013-02-28 15:18:00,
2013-02-28 10:23:00,42.8,43.0,29.18,SSE,157,3.5,4.4,100,0.00,,,0.01,Rainwise IP-100,2013-02-28 15:23:00,
2013-02-28 10:28:00,42.2,42.0,29.18,SSW,202,4.2,5.8,100,0.00,,,0.01,Rainwise IP-100,2013-02-28 15:28:00,
2013-02-28 10:33:00,39.8,40.0,29.18,SSW,202,4.7,6.3,100,0.00,,,0.01,Rainwise IP-100,2013-02-28 15:33:00,
2013-02-28 10:38:00,38.3,38.0,29.18,SSW,202,2.1,5.4,100,0.00,,,0.01,Rainwise IP-100,2013-02-28 15:38:00,
2013-02-28 10:43:00,38.4,38.0,29.18,SSW,202,6.1,6.1,100,0.00,,,0.01,Rainwise IP-100,2013-02-28 15:43:00,
2013-02-28 10:48:00,38.0,38.0,29.18,SE,135,2.1,7.9,100,0.06,,,0.02,Rainwise IP-100,2013-02-28 15:48:00,
2013-02-28 10:53:00,38.0,38.0,29.18,SSW,202,0.0,4.9,100,0.06,,,0.02,Rainwise IP-100,2013-02-28 15:53:00,
2013-02-28 10:58:00,38.7,39.0,29.18,SSW,202,2.6,3.5,100,0.00,,,0.02,Rainwise IP-100,2013-02-28 15:58:00,
2013-02-28 11:03:00,38.6,39.0,29.17,SSE,157,5.6,5.8,100,0.00,,,0.02,Rainwise IP-100,2013-02-28 16:03:00,
2013-02-28 11:08:00,38.0,38.0,29.17,SW,225,1.6,6.1,100,0.00,,,0.02,Rainwise IP-100,2013-02-28 16:08:00,
2013-02-28 11:14:00,38.1,38.0,29.18,SSW,202,4.4,6.3,100,0.00,,,0.02,Rainwise IP-100,2013-02-28 16:14:00,
2013-02-28 11:19:00,38.0,38.0,29.17,SSE,157,4.9,5.8,100,0.00,,,0.02,Rainwise IP-100,2013-02-28 16:19:00,
2013-02-28 11:24:00,37.7,38.0,29.17,SW,225,3.5,6.8,100,0.00,,,0.02,Rainwise IP-100,2013-02-28 16:24:00,
2013-02-28 11:29:00,37.9,38.0,29.17,SSW,202,7.0,7.2,100,0.00,,,0.02,Rainwise IP-100,2013-02-28 16:29:00,
2013-02-28 11:34:00,37.9,38.0,29.17,SSW,202,1.4,7.2,100,0.00,,,0.02,Rainwise IP-100,2013-02-28 16:34:00,
2013-02-28 11:39:00,38.2,38.0,29.16,SSW,202,1.9,5.6,100,0.00,,,0.02,Rainwise IP-100,2013-02-28 16:39:00,
2013-02-28 11:44:00,39.0,39.0,29.17,ENE,67,1.9,5.1,100,0.00,,,0.02,Rainwise IP-100,2013-02-28 16:44:00,
2013-02-28 11:49:00,39.9,40.0,29.17,South,180,2.6,6.1,100,0.00,,,0.02,Rainwise IP-100,2013-02-28 16:49:00,
2013-02-28 11:54:00,40.3,40.0,29.17,South,180,3.7,5.4,99,0.00,,,0.02,Rainwise IP-100,2013-02-28 16:54:00,
2013-02-28 11:59:00,40.9,41.0,29.17,SSW,202,3.7,6.3,99,0.00,,,0.02,Rainwise IP-100,2013-02-28 16:59:00,
2013-02-28 12:04:00,40.9,41.0,29.17,SSW,202,7.9,7.9,99,0.00,,,0.02,Rainwise IP-100,2013-02-28 17:04:00,
2013-02-28 12:09:00,39.9,40.0,29.17,SW,225,4.2,8.9,98,0.00,,,0.02,Rainwise IP-100,2013-02-28 17:09:00,
2013-02-28 12:14:00,39.4,38.0,29.17,South,180,4.0,9.3,96,0.00,,,0.02,Rainwise IP-100,2013-02-28 17:14:00,
2013-02-28 12:19:00,39.5,39.0,29.16,South,180,5.4,7.0,96,0.00,,,0.02,Rainwise IP-100,2013-02-28 17:19:00,
2013-02-28 12:24:00,39.3,38.0,29.15,SSW,202,5.8,6.5,95,0.00,,,0.02,Rainwise IP-100,2013-02-28 17:24:00,
2013-02-28 12:30:00,39.1,38.0,29.15,SSW,202,3.5,7.0,94,0.00,,,0.02,Rainwise IP-100,2013-02-28 17:30:00,
2013-02-28 12:35:00,39.2,37.0,29.15,SSW,202,3.0,6.1,93,0.00,,,0.02,Rainwise IP-100,2013-02-28 17:35:00,
2013-02-28 12:40:00,39.5,38.0,29.16,SSE,157,4.9,5.1,93,0.00,,,0.02,Rainwise IP-100,2013-02-28 17:40:00,
2013-02-28 12:45:00,39.6,38.0,29.15,SSE,157,1.4,5.8,93,0.00,,,0.02,Rainwise IP-100,2013-02-28 17:45:00,
2013-02-28 12:50:00,39.6,38.0,29.15,SSE,157,1.2,4.7,93,0.00,,,0.02,Rainwise IP-100,2013-02-28 17:50:00,
2013-02-28 12:55:00,39.7,38.0,29.15,South,180,1.4,4.2,93,0.00,,,0.02,Rainwise IP-100,2013-02-28 17:55:00,
2013-02-28 13:00:00,39.9,38.0,29.15,SSE,157,3.0,3.0,93,0.00,,,0.02,Rainwise IP-100,2013-02-28 18:00:00,
2013-02-28 13:05:00,40.1,38.0,29.15,SSW,202,3.5,4.9,93,0.00,,,0.02,Rainwise IP-100,2013-02-28 18:05:00,
2013-02-28 13:10:00,40.0,38.0,29.15,SSE,157,1.2,4.0,92,0.00,,,0.02,Rainwise IP-100,2013-02-28 18:10:00,
2013-02-28 13:15:00,40.0,38.0,29.15,SSW,202,3.5,4.4,90,0.00,,,0.02,Rainwise IP-100,2013-02-28 18:15:00,
2013-02-28 13:20:00,40.0,37.0,29.15,SSW,202,3.3,5.6,89,0.00,,,0.02,Rainwise IP-100,2013-02-28 18:20:00,
2013-02-28 13:25:00,40.0,37.0,29.15,SW,225,2.3,4.9,89,0.00,,,0.02,Rainwise IP-100,2013-02-28 18:25:00,
2013-02-28 13:30:00,39.9,37.0,29.15,WSW,247,0.0,6.3,88,0.00,,,0.02,Rainwise IP-100,2013-02-28 18:30:00,
2013-02-28 13:35:00,39.9,37.0,29.15,WSW,247,1.6,5.4,89,0.00,,,0.02,Rainwise IP-100,2013-02-28 18:35:00,
2013-02-28 13:41:00,40.3,38.0,29.15,SW,225,3.7,4.7,90,0.00,,,0.02,Rainwise IP-100,2013-02-28 18:41:00,
2013-02-28 13:46:00,40.5,39.0,29.15,SSW,202,2.1,4.9,91,0.00,,,0.02,Rainwise IP-100,2013-02-28 18:46:00,
2013-02-28 13:51:00,40.6,38.0,29.14,SSW,202,4.0,5.8,90,0.00,,,0.02,Rainwise IP-100,2013-02-28 18:51:00,
2013-02-28 13:56:00,40.9,38.0,29.15,SSE,157,1.6,5.1,90,0.00,,,0.02,Rainwise IP-100,2013-02-28 18:56:00,
2013-02-28 14:01:00,41.6,40.0,29.15,ESE,112,2.8,4.4,92,0.00,,,0.02,Rainwise IP-100,2013-02-28 19:01:00,
2013-02-28 14:06:00,42.0,40.0,29.14,ESE,112,1.2,2.8,94,0.00,,,0.02,Rainwise IP-100,2013-02-28 19:06:00,
2013-02-28 14:11:00,41.8,40.0,29.15,ENE,67,2.3,3.3,94,0.00,,,0.02,Rainwise IP-100,2013-02-28 19:11:00,
2013-02-28 14:16:00,41.6,40.0,29.15,East,90,1.9,3.0,94,0.00,,,0.02,Rainwise IP-100,2013-02-28 19:16:00,
2013-02-28 14:21:00,41.7,40.0,29.14,ENE,67,1.9,2.3,94,0.00,,,0.02,Rainwise IP-100,2013-02-28 19:21:00,
2013-02-28 14:26:00,41.3,39.0,29.14,ENE,67,2.1,3.7,94,0.00,,,0.02,Rainwise IP-100,2013-02-28 19:26:00,
2013-02-28 14:31:00,40.8,39.0,29.14,ENE,67,0.0,4.0,93,0.00,,,0.02,Rainwise IP-100,2013-02-28 19:31:00,
2013-02-28 14:36:00,41.2,39.0,29.14,ENE,67,1.2,2.1,94,0.00,,,0.02,Rainwise IP-100,2013-02-28 19:36:00,
2013-02-28 14:41:00,42.0,41.0,29.14,WSW,247,1.2,1.6,95,0.00,,,0.02,Rainwise IP-100,2013-02-28 19:41:00,
2013-02-28 14:46:00,42.4,41.0,29.14,WNW,292,0.0,2.6,97,0.00,,,0.02,Rainwise IP-100,2013-02-28 19:46:00,
2013-02-28 14:51:00,42.5,42.0,29.14,West,270,0.0,1.2,97,0.00,,,0.02,Rainwise IP-100,2013-02-28 19:51:00,
2013-02-28 14:57:00,42.6,42.0,29.13,SSW,202,1.4,3.5,97,0.00,,,0.02,Rainwise IP-100,2013-02-28 19:57:00,
2013-02-28 15:02:00,42.6,42.0,29.14,SSW,202,2.1,3.0,96,0.00,,,0.02,Rainwise IP-100,2013-02-28 20:02:00,
2013-02-28 15:07:00,42.6,42.0,29.14,SSW,202,1.9,2.6,95,0.00,,,0.02,Rainwise IP-100,2013-02-28 20:07:00,
2013-02-28 15:12:00,42.4,40.0,29.13,WSW,247,0.0,3.0,93,0.00,,,0.02,Rainwise IP-100,2013-02-28 20:12:00,
2013-02-28 15:17:00,42.4,40.0,29.13,NW,315,0.0,1.2,94,0.00,,,0.02,Rainwise IP-100,2013-02-28 20:17:00,
2013-02-28 15:22:00,42.7,42.0,29.13,SSW,202,3.5,3.5,95,0.00,,,0.02,Rainwise IP-100,2013-02-28 20:22:00,
2013-02-28 15:27:00,42.5,41.0,29.13,SSW,202,3.5,4.7,93,0.00,,,0.02,Rainwise IP-100,2013-02-28 20:27:00,
2013-02-28 15:32:00,42.3,39.0,29.13,SSW,202,2.8,4.2,90,0.00,,,0.02,Rainwise IP-100,2013-02-28 20:32:00,
2013-02-28 15:37:00,42.2,39.0,29.13,SW,225,3.7,4.7,89,0.00,,,0.02,Rainwise IP-100,2013-02-28 20:37:00,
2013-02-28 15:42:00,42.1,39.0,29.13,SSW,202,3.3,4.2,88,0.00,,,0.02,Rainwise IP-100,2013-02-28 20:42:00,
2013-02-28 15:47:00,41.8,38.0,29.13,SSW,202,3.5,4.7,87,0.00,,,0.02,Rainwise IP-100,2013-02-28 20:47:00,
2013-02-28 15:52:00,41.7,38.0,29.13,SSW,202,2.1,4.0,86,0.00,,,0.02,Rainwise IP-100,2013-02-28 20:52:00,
2013-02-28 15:57:00,41.5,38.0,29.13,SSE,157,3.3,3.3,86,0.00,,,0.02,Rainwise IP-100,2013-02-28 20:57:00,
2013-02-28 16:02:00,41.4,37.0,29.13,SSW,202,0.0,4.0,85,0.00,,,0.02,Rainwise IP-100,2013-02-28 21:02:00,
2013-02-28 16:07:00,41.3,37.0,29.13,SSE,157,2.6,4.2,86,0.00,,,0.02,Rainwise IP-100,2013-02-28 21:07:00,
2013-02-28 16:13:00,41.1,37.0,29.12,SSE,157,0.0,4.0,86,0.00,,,0.02,Rainwise IP-100,2013-02-28 21:13:00,
2013-02-28 16:18:00,41.0,37.0,29.13,SSE,157,0.0,2.8,86,0.00,,,0.02,Rainwise IP-100,2013-02-28 21:18:00,
2013-02-28 16:23:00,41.0,37.0,29.12,South,180,0.0,1.6,86,0.00,,,0.02,Rainwise IP-100,2013-02-28 21:23:00,
2013-02-28 16:28:00,41.0,38.0,29.12,South,180,1.6,1.9,88,0.00,,,0.02,Rainwise IP-100,2013-02-28 21:28:00,
2013-02-28 16:33:00,40.8,38.0,29.12,South,180,2.3,2.8,88,0.00,,,0.02,Rainwise IP-100,2013-02-28 21:33:00,
2013-02-28 16:38:00,40.7,38.0,29.12,SSW,202,1.6,2.8,87,0.00,,,0.02,Rainwise IP-100,2013-02-28 21:38:00,
2013-02-28 16:43:00,40.6,38.0,29.13,SSW,202,1.4,2.3,87,0.00,,,0.02,Rainwise IP-100,2013-02-28 21:43:00,
2013-02-28 16:48:00,40.5,38.0,29.13,SSW,202,0.0,2.3,87,0.00,,,0.02,Rainwise IP-100,2013-02-28 21:48:00,
2013-02-28 16:53:00,40.5,38.0,29.13,SSW,202,0.0,1.4,87,0.00,,,0.02,Rainwise IP-100,2013-02-28 21:53:00,
2013-02-28 16:58:00,40.4,37.0,29.13,WSW,247,0.0,0.0,87,0.00,,,0.02,Rainwise IP-100,2013-02-28 21:58:00,
2013-02-28 17:03:00,40.3,37.0,29.13,WSW,247,0.0,1.2,89,0.00,,,0.02,Rainwise IP-100,2013-02-28 22:03:00,
2013-02-28 17:08:00,40.3,38.0,29.13,WSW,247,0.0,0.0,90,0.00,,,0.02,Rainwise IP-100,2013-02-28 22:08:00,
2013-02-28 17:13:00,40.1,38.0,29.13,WSW,247,0.0,0.0,91,0.00,,,0.02,Rainwise IP-100,2013-02-28 22:13:00,
2013-02-28 17:18:00,39.8,38.0,29.13,WSW,247,0.0,1.2,92,0.00,,,0.02,Rainwise IP-100,2013-02-28 22:18:00,
2013-02-28 17:23:00,39.6,38.0,29.14,WSW,247,0.0,0.0,92,0.00,,,0.02,Rainwise IP-100,2013-02-28 22:23:00,
2013-02-28 17:29:00,39.3,37.0,29.13,WSW,247,0.0,0.0,92,0.00,,,0.02,Rainwise IP-100,2013-02-28 22:29:00,
2013-02-28 17:34:00,39.1,37.0,29.13,WSW,247,0.0,0.0,92,0.00,,,0.02,Rainwise IP-100,2013-02-28 22:34:00,
2013-02-28 17:39:00,38.9,37.0,29.13,WSW,247,0.0,0.0,93,0.00,,,0.02,Rainwise IP-100,2013-02-28 22:39:00,
2013-02-28 17:44:00,38.6,37.0,29.13,WSW,247,0.0,0.0,93,0.00,,,0.02,Rainwise IP-100,2013-02-28 22:44:00,
2013-02-28 17:49:00,38.4,36.0,29.13,WSW,247,0.0,1.2,93,0.00,,,0.02,Rainwise IP-100,2013-02-28 22:49:00,
2013-02-28 17:54:00,38.2,36.0,29.14,WSW,247,0.0,0.0,93,0.00,,,0.02,Rainwise IP-100,2013-02-28 22:54:00,
2013-02-28 17:59:00,38.1,37.0,29.13,WSW,247,0.0,0.0,94,0.00,,,0.02,Rainwise IP-100,2013-02-28 22:59:00,
2013-02-28 18:04:00,38.0,37.0,29.14,WSW,247,0.0,0.0,94,0.00,,,0.02,Rainwise IP-100,2013-02-28 23:04:00,
2013-02-28 18:09:00,37.9,37.0,29.13,WSW,247,0.0,0.0,94,0.00,,,0.02,Rainwise IP-100,2013-02-28 23:09:00,
2013-02-28 18:14:00,37.4,36.0,29.13,WSW,247,0.0,0.0,94,0.00,,,0.02,Rainwise IP-100,2013-02-28 23:14:00,
2013-02-28 18:19:00,36.9,36.0,29.14,WSW,247,0.0,0.0,94,0.00,,,0.02,Rainwise IP-100,2013-02-28 23:19:00,
2013-02-28 18:24:00,36.6,36.0,29.14,WSW,247,0.0,1.2,95,0.00,,,0.02,Rainwise IP-100,2013-02-28 23:24:00,
2013-02-28 18:29:00,36.5,36.0,29.14,WSW,247,0.0,0.0,95,0.00,,,0.02,Rainwise IP-100,2013-02-28 23:29:00,
2013-02-28 18:34:00,36.4,35.0,29.14,SSW,202,1.9,2.1,95,0.00,,,0.02,Rainwise IP-100,2013-02-28 23:34:00,
2013-02-28 18:40:00,36.4,35.0,29.14,SSW,202,0.0,2.3,96,0.00,,,0.02,Rainwise IP-100,2013-02-28 23:40:00,
2013-02-28 18:45:00,36.2,35.0,29.14,SSW,202,0.0,1.9,96,0.00,,,0.02,Rainwise IP-100,2013-02-28 23:45:00,
2013-02-28 18:50:00,36.1,35.0,29.14,SSW,202,0.0,1.9,96,0.00,,,0.02,Rainwise IP-100,2013-02-28 23:50:00,
2013-02-28 18:55:00,36.1,35.0,29.14,SSW,202,1.9,1.9,96,0.00,,,0.02,Rainwise IP-100,2013-02-28 23:55:00,
2013-02-28 19:00:00,36.1,35.0,29.14,SSW,202,2.3,2.3,97,0.00,,,0.02,Rainwise IP-100,2013-03-01 00:00:00,
2013-02-28 19:05:00,36.0,35.0,29.14,SSW,202,1.9,2.8,97,0.00,,,0.02,Rainwise IP-100,2013-03-01 00:05:00,
2013-02-28 19:10:00,36.0,35.0,29.14,SSW,202,1.9,2.1,97,0.00,,,0.02,Rainwise IP-100,2013-03-01 00:10:00,
2013-02-28 19:15:00,36.1,35.0,29.13,SSW,202,1.2,2.1,97,0.00,,,0.02,Rainwise IP-100,2013-03-01 00:15:00,
2013-02-28 19:20:00,36.2,35.0,29.13,SSW,202,0.0,1.6,97,0.00,,,0.02,Rainwise IP-100,2013-03-01 00:20:00,
2013-02-28 19:25:00,36.0,35.0,29.14,SSW,202,1.4,1.9,97,0.00,,,0.02,Rainwise IP-100,2013-03-01 00:25:00,
2013-02-28 19:30:00,35.8,35.0,29.14,SSW,202,1.9,1.9,97,0.00,,,0.02,Rainwise IP-100,2013-03-01 00:30:00,
2013-02-28 19:35:00,35.6,35.0,29.14,SSW,202,0.0,2.1,97,0.00,,,0.02,Rainwise IP-100,2013-03-01 00:35:00,
2013-02-28 19:40:00,35.7,35.0,29.13,SSW,202,0.0,1.4,97,0.00,,,0.02,Rainwise IP-100,2013-03-01 00:40:00,
2013-02-28 19:45:00,35.6,35.0,29.14,SSW,202,0.0,1.4,97,0.00,,,0.02,Rainwise IP-100,2013-03-01 00:45:00,
2013-02-28 19:50:00,35.4,33.0,29.13,SSW,202,0.0,0.0,97,0.00,,,0.02,Rainwise IP-100,2013-03-01 00:50:00,
2013-02-28 19:56:00,35.2,33.0,29.14,SSW,202,0.0,0.0,97,0.00,,,0.02,Rainwise IP-100,2013-03-01 00:56:00,
2013-02-28 20:01:00,35.1,33.0,29.14,SSW,202,0.0,1.6,97,0.00,,,0.02,Rainwise IP-100,2013-03-01 01:01:00,
2013-02-28 20:06:00,35.0,35.0,29.14,SSW,202,1.4,1.9,98,0.00,,,0.02,Rainwise IP-100,2013-03-01 01:06:00,
2013-02-28 20:11:00,34.9,35.0,29.13,SSW,202,1.2,2.1,98,0.00,,,0.02,Rainwise IP-100,2013-03-01 01:11:00,
2013-02-28 20:16:00,34.9,35.0,29.14,SSW,202,0.0,1.4,98,0.00,,,0.02,Rainwise IP-100,2013-03-01 01:16:00,
2013-02-28 20:21:00,35.0,35.0,29.14,SSW,202,0.0,1.2,98,0.00,,,0.02,Rainwise IP-100,2013-03-01 01:21:00,
2013-02-28 20:26:00,34.9,35.0,29.14,SSW,202,0.0,0.0,98,0.00,,,0.02,Rainwise IP-100,2013-03-01 01:26:00,
2013-02-28 20:30:00,34.6,35.0,29.14,SSW,202,0.0,0.0,98,0.00,,,0.02,Rainwise IP-100,2013-03-01 01:30:00,
2013-02-28 20:35:00,34.2,35.0,29.14,SSW,202,0.0,0.0,98,0.00,,,0.02,Rainwise IP-100,2013-03-01 01:35:00,
2013-02-28 20:40:00,34.2,35.0,29.14,SSW,202,0.0,0.0,98,0.00,,,0.02,Rainwise IP-100,2013-03-01 01:40:00,
2013-02-28 20:45:00,34.3,35.0,29.14,SSW,202,0.0,0.0,98,0.00,,,0.02,Rainwise IP-100,2013-03-01 01:45:00,
2013-02-28 20:50:00,34.4,35.0,29.14,SSW,202,0.0,0.0,99,0.00,,,0.02,Rainwise IP-100,2013-03-01 01:50:00,
2013-02-28 20:56:00,34.4,35.0,29.14,SSW,202,0.0,0.0,99,0.00,,,0.02,Rainwise IP-100,2013-03-01 01:56:00,
2013-02-28 21:01:00,34.5,35.0,29.14,SSW,202,0.0,0.0,99,0.00,,,0.02,Rainwise IP-100,2013-03-01 02:01:00,
2013-02-28 21:06:00,34.6,35.0,29.14,SSW,202,0.0,0.0,99,0.00,,,0.02,Rainwise IP-100,2013-03-01 02:06:00,
2013-02-28 21:11:00,34.6,35.0,29.14,SSW,202,0.0,0.0,99,0.00,,,0.02,Rainwise IP-100,2013-03-01 02:11:00,
2013-02-28 21:16:00,34.5,35.0,29.14,SSW,202,0.0,0.0,99,0.00,,,0.02,Rainwise IP-100,2013-03-01 02:16:00,
2013-02-28 21:21:00,34.4,35.0,29.14,SSW,202,0.0,0.0,99,0.00,,,0.02,Rainwise IP-100,2013-03-01 02:21:00,
2013-02-28 21:26:00,34.2,35.0,29.14,SSW,202,0.0,0.0,99,0.00,,,0.02,Rainwise IP-100,2013-03-01 02:26:00,
2013-02-28 21:31:00,34.1,35.0,29.13,SSW,202,0.0,0.0,99,0.00,,,0.02,Rainwise IP-100,2013-03-01 02:31:00,
2013-02-28 21:36:00,34.0,35.0,29.14,SSW,202,0.0,0.0,99,0.00,,,0.02,Rainwise IP-100,2013-03-01 02:36:00,
2013-02-28 21:41:00,34.0,35.0,29.14,SSW,202,0.0,0.0,99,0.00,,,0.02,Rainwise IP-100,2013-03-01 02:41:00,
2013-02-28 21:46:00,34.0,35.0,29.14,SSW,202,0.0,1.4,99,0.00,,,0.02,Rainwise IP-100,2013-03-01 02:46:00,
2013-02-28 21:51:00,34.0,35.0,29.14,SSW,202,0.0,1.2,99,0.00,,,0.02,Rainwise IP-100,2013-03-01 02:51:00,
2013-02-28 21:56:00,33.9,35.0,29.14,SSW,202,0.0,0.0,99,0.00,,,0.02,Rainwise IP-100,2013-03-01 02:56:00,
2013-02-28 22:01:00,33.8,35.0,29.14,SSW,202,0.0,0.0,99,0.00,,,0.02,Rainwise IP-100,2013-03-01 03:01:00,
2013-02-28 22:06:00,33.8,35.0,29.14,SSW,202,0.0,0.0,99,0.00,,,0.02,Rainwise IP-100,2013-03-01 03:06:00,
2013-02-28 22:12:00,33.8,35.0,29.13,SSW,202,0.0,0.0,99,0.00,,,0.02,Rainwise IP-100,2013-03-01 03:12:00,
2013-02-28 22:17:00,33.8,35.0,29.13,SSW,202,0.0,0.0,99,0.00,,,0.02,Rainwise IP-100,2013-03-01 03:17:00,
2013-02-28 22:22:00,33.7,35.0,29.14,SSW,202,0.0,0.0,99,0.00,,,0.02,Rainwise IP-100,2013-03-01 03:22:00,
2013-02-28 22:27:00,33.6,35.0,29.14,SSW,202,0.0,0.0,99,0.00,,,0.02,Rainwise IP-100,2013-03-01 03:27:00,
2013-02-28 22:32:00,33.6,35.0,29.14,SSW,202,0.0,0.0,99,0.00,,,0.02,Rainwise IP-100,2013-03-01 03:32:00,
2013-02-28 22:37:00,33.5,35.0,29.13,SSW,202,0.0,0.0,99,0.00,,,0.02,Rainwise IP-100,2013-03-01 03:37:00,
2013-02-28 22:42:00,33.4,33.0,29.13,SSW,202,0.0,0.0,99,0.00,,,0.02,Rainwise IP-100,2013-03-01 03:42:00,
2013-02-28 22:47:00,33.4,33.0,29.14,SSW,202,0.0,0.0,99,0.00,,,0.02,Rainwise IP-100,2013-03-01 03:47:00,
2013-02-28 22:52:00,33.4,33.0,29.13,SSW,202,0.0,0.0,99,0.00,,,0.02,Rainwise IP-100,2013-03-01 03:52:00,
2013-02-28 22:57:00,33.3,33.0,29.14,SSW,202,0.0,0.0,99,0.00,,,0.02,Rainwise IP-100,2013-03-01 03:57:00,
2013-02-28 23:00:00,33.2,33.0,29.14,SSW,202,0.0,1.2,99,0.00,,,0.02,Rainwise IP-100,2013-03-01 04:00:00,
2013-02-28 23:05:00,33.1,33.0,29.14,SSW,202,1.6,1.6,99,0.00,,,0.02,Rainwise IP-100,2013-03-01 04:05:00,
2013-02-28 23:10:00,33.1,33.0,29.14,SSW,202,0.0,1.9,99,0.00,,,0.02,Rainwise IP-100,2013-03-01 04:10:00,
2013-02-28 23:15:00,33.0,33.0,29.13,SSW,202,0.0,0.0,100,0.00,,,0.02,Rainwise IP-100,2013-03-01 04:15:00,
2013-02-28 23:20:00,32.9,33.0,29.13,SSW,202,0.0,0.0,100,0.00,,,0.02,Rainwise IP-100,2013-03-01 04:20:00,
2013-02-28 23:25:00,32.9,33.0,29.13,SSW,202,0.0,0.0,100,0.00,,,0.02,Rainwise IP-100,2013-03-01 04:25:00,
2013-02-28 23:30:00,32.8,33.0,29.13,SSW,202,0.0,1.4,100,0.00,,,0.02,Rainwise IP-100,2013-03-01 04:30:00,
2013-02-28 23:35:00,32.8,33.0,29.13,SSW,202,0.0,0.0,100,0.00,,,0.02,Rainwise IP-100,2013-03-01 04:35:00,
2013-02-28 23:40:00,32.9,33.0,29.13,SSW,202,0.0,0.0,100,0.00,,,0.02,Rainwise IP-100,2013-03-01 04:40:00,
2013-02-28 23:45:00,32.8,33.0,29.13,SSW,202,0.0,0.0,100,0.00,,,0.02,Rainwise IP-100,2013-03-01 04:45:00,
2013-02-28 23:50:00,32.7,33.0,29.14,SSW,202,0.0,0.0,100,0.00,,,0.02,Rainwise IP-100,2013-03-01 04:50:00,
2013-02-28 23:55:00,32.6,33.0,29.13,SSW,202,0.0,0.0,100,0.00,,,0.02,Rainwise IP-100,2013-03-01 04:55:00,